Regional Weather Roundup
Issued by NWS Cleveland, OH

Home | Current Version | Previous Version | Graphics & Text | Print | Product List | Glossary On
Versions: 1 2 3 4 5 6 7 8 9 10 11 12 13 14 15 16 17 18 19 20 21 22 23 24 25 26 27 28 29 30 31 32 33 34 35 36 37 38 39 40 41 42 43 44 45 46 47 48 49 50
289
ASUS41 KCLE 270212
RWRCLE
OHIO REGIONAL WEATHER ROUNDUP
NATIONAL WEATHER SERVICE WILMINGTON, OH
1000 PM EDT TUE JUL 26 2016

NOTE: "FAIR" INDICATES FEW OR NO CLOUDS BELOW 12,000 FEET WITH NO
SIGNIFICANT WEATHER AND/OR OBSTRUCTIONS TO VISIBILITY.

OHZ001>008-015>018-024>027-034-035-043-044-270300-
   NORTHWEST OHIO

CITY           SKY/WX    TMP DP  RH WIND       PRES   REMARKS
DEFIANCE       FAIR      74  66  76 CALM      30.01R
FINDLAY        CLOUDY    79  60  52 E5        30.01R
TOLEDO EXPRESS FAIR      71  66  84 E3        30.01R
TOLEDO EXEC    FAIR      75  62  64 SE6       30.01S
LIMA           FAIR      74  68  81 CALM      30.02R
$$

OHZ009>014-019>023-028>033-038-089-270300-
   NORTHEAST OHIO

CITY           SKY/WX    TMP DP  RH WIND       PRES   REMARKS
CLE-HOPKINS    FAIR      77  56  48 NE6       30.04R
CLE-LAKEFRONT  FAIR      76  65  68 NE3       30.01R
CUY CO. ARPT   CLEAR    N/A N/A N/A CALM      30.03S
LORAIN-ELYRIA  FAIR      68  58  70 CALM      30.03R
ASHTABULA      FAIR      65  63  93 CALM      30.04R
AKRON-CANTON   FAIR      71  57  61 NE7       30.03S
WOOSTER        FAIR      72  54  53 N6        30.04R
MANSFIELD      FAIR      74  59  59 N6        30.04R
YOUNGSTOWN     FAIR      71  58  63 N6        30.04R
$$

OHZ042-051>053-060>062-070>072-077>081-270300-
  SOUTHWEST OHIO

CITY           SKY/WX    TMP DP  RH WIND       PRES   REMARKS
CINC-COVINGTON CLOUDY    79  74  84 S5        30.01S
CINC-LUNKEN    CLOUDY    77  76  96 S6        30.00S
HAMILTON       FAIR      76  73  91 CALM      30.01S
DAYTON         MOCLDY    78  68  71 NW6       30.03R
WRIGHT-PAT AFB CLOUDY    80  69  68 NW5       30.01R
DAYTON GENERAL FAIR      78  68  71 CALM      30.01R
WILMINGTON     CLOUDY    76  73  91 CALM      30.02R
$$

OHZ036-037-039>041-045>050-054>059-063>069-073>076-082>088-270300-
  CENTRAL AND SOUTHEAST OHIO

CITY           SKY/WX    TMP DP  RH WIND       PRES   REMARKS
COLUMBUS       CLOUDY    79  72  79 S6        30.00R
OSU AIRPORT    FAIR      78  69  73 SW3       30.01R
BOLTON FIELD   MOCLDY    75  73  93 SW5       30.02R
RICKENBACK AFB FAIR      75  73  92 S6        30.01R
NEWARK         FAIR      76  72  87 CALM      30.00S
MARION         FAIR      72  64  76 NE6       30.03R
LANCASTER      FAIR      75  73  93 CALM      30.02R
ZANESVILLE     FAIR      79  71  76 W5        30.01R
NEW PHILLY     FAIR      81  59  47 N5        30.01R
$$




USA.gov is the U.S. government's official web portal to all federal, state and local government web resources and services.